When you browse on this site, cookies collect data to enhance your experience and personalize the content and advertising you see.
Visit our Privacy Policy to learn more. By continuing to use the site, you agree to this use of cookies and data.
  • In Spain
  • List of Countries
  • For 7 days
  • Water Temperature
  • Weather Map
  • Weather Widgets
  • user-avatar
    Login

    Hourly Weather Limache

    Today, 22 February, Saturday

    Time Temperature Precipitation Wind Pressure Humidity
    00:00 +12°C° 0 mm 0 mps 749 mmHg 92%
    01:00 +12°C° 0 mm 0 mps 749 mmHg 92%
    02:00 +11°C° 0 mm 0 mps 750 mmHg 93%
    03:00 +11°C° 0 mm 0 mps 750 mmHg 93%
    04:00 +11°C° 0 mm 0 mps 750 mmHg 93%
    05:00 +13°C° 0 mm 0 mps 750 mmHg 88%
    06:00 +15°C° 0 mm 0 mps 750 mmHg 82%
    07:00 +18°C° 0 mm 0 mps 750 mmHg 76%
    08:00 +22°C° 0 mm 1 mps 751 mmHg 64%
    09:00 +25°C° 0 mm 2 mps 751 mmHg 53%
    10:00 +28°C° 0 mm 3 mps 751 mmHg 42%
    11:00 +28°C° 0 mm 3 mps 750 mmHg 39%
    12:00 +29°C° 0 mm 3 mps 750 mmHg 36%
    13:00 +30°C° 0 mm 4 mps 750 mmHg 34%
    14:00 +29°C° 0 mm 3 mps 750 mmHg 36%
    15:00 +28°C° 0 mm 3 mps 749 mmHg 38%
    16:00 +27°C° 0 mm 3 mps 749 mmHg 40%
    17:00 +24°C° 0 mm 2 mps 749 mmHg 55%
    18:00 +20°C° 0 mm 1 mps 749 mmHg 70%
    19:00 +15°C° 0 mm 1 mps 749 mmHg 85%
    20:00 +14°C° 0 mm 1 mps 749 mmHg 85%
    21:00 +13°C° 0 mm 0 mps 749 mmHg 85%
    22:00 +13°C° 0 mm 0 mps 749 mmHg 85%
    23:00 +12°C° 0 mm 0 mps 749 mmHg 85%

    Tomorrow, 23 February, Sunday

    Time Temperature Precipitation Wind Pressure Humidity
    00:00 +12°C° 0 mm 0 mps 748 mmHg 84%
    01:00 +12°C° 0 mm 0 mps 748 mmHg 84%
    02:00 +12°C° 0 mm 0 mps 748 mmHg 83%
    03:00 +12°C° 0 mm 0 mps 748 mmHg 82%
    04:00 +12°C° 0 mm 0 mps 748 mmHg 81%
    05:00 +14°C° 0 mm 0 mps 748 mmHg 74%
    06:00 +17°C° 0 mm 0 mps 749 mmHg 66%
    07:00 +21°C° 0 mm 1 mps 749 mmHg 58%
    08:00 +24°C° 0 mm 1 mps 749 mmHg 51%
    09:00 +26°C° 0 mm 2 mps 750 mmHg 44%
    10:00 +28°C° 0 mm 3 mps 750 mmHg 38%
    11:00 +29°C° 0 mm 3 mps 750 mmHg 37%
    12:00 +29°C° 0 mm 4 mps 750 mmHg 36%
    13:00 +30°C° 0 mm 4 mps 750 mmHg 35%
    14:00 +29°C° 0 mm 4 mps 750 mmHg 36%
    15:00 +28°C° 0 mm 3 mps 749 mmHg 38%
    16:00 +27°C° 0 mm 3 mps 749 mmHg 39%
    17:00 +23°C° 0 mm 2 mps 750 mmHg 55%
    18:00 +19°C° 0 mm 1 mps 750 mmHg 71%
    19:00 +14°C° 0 mm 1 mps 750 mmHg 87%
    20:00 +12°C° 0 mm 0 mps 750 mmHg 87%
    21:00 +12°C° 0 mm 0 mps 750 mmHg 88%
    22:00 +11°C° 0 mm 0 mps 750 mmHg 89%
    23:00 +11°C° 0 mm 0 mps 750 mmHg 89%

    Day after tomorrow, 24 February, Monday

    Time Temperature Precipitation Wind Pressure Humidity
    00:00 +11°C° 0 mm 0 mps 750 mmHg 89%
    01:00 +11°C° 0 mm 0 mps 749 mmHg 88%
    02:00 +10°C° 0 mm 0 mps 749 mmHg 89%
    03:00 +10°C° 0 mm 0 mps 749 mmHg 89%
    04:00 +10°C° 0 mm 0 mps 749 mmHg 89%
    05:00 +12°C° 0 mm 0 mps 749 mmHg 82%
    06:00 +14°C° 0 mm 0 mps 749 mmHg 75%
    07:00 +17°C° 0 mm 0 mps 749 mmHg 68%
    08:00 +21°C° 0 mm 1 mps 749 mmHg 59%
    09:00 +24°C° 0 mm 2 mps 749 mmHg 50%
    10:00 +26°C° 0 mm 3 mps 749 mmHg 41%
    11:00 +27°C° 0 mm 3 mps 749 mmHg 39%
    12:00 +28°C° 0 mm 3 mps 749 mmHg 37%
    13:00 +28°C° 0 mm 4 mps 749 mmHg 35%
    14:00 +27°C° 0 mm 4 mps 749 mmHg 37%
    15:00 +26°C° 0 mm 3 mps 749 mmHg 40%
    16:00 +25°C° 0 mm 3 mps 749 mmHg 42%
    17:00 +20°C° 0 mm 2 mps 749 mmHg 58%
    18:00 +16°C° 0 mm 1 mps 749 mmHg 74%
    19:00 +12°C° 0 mm 1 mps 750 mmHg 89%
    20:00 +11°C° 0 mm 0 mps 750 mmHg 89%
    21:00 +11°C° 0 mm 0 mps 750 mmHg 89%
    22:00 +10°C° 0 mm 0 mps 750 mmHg 89%
    23:00 +10°C° 0 mm 0 mps 750 mmHg 88%

    25 February, Tuesday

    Time Temperature Precipitation Wind Pressure Humidity
    00:00 +10°C° 0 mm 0 mps 750 mmHg 88%
    01:00 +10°C° 0 mm 0 mps 749 mmHg 87%
    02:00 +10°C° 0 mm 0 mps 749 mmHg 86%
    03:00 +10°C° 0 mm 0 mps 749 mmHg 84%
    04:00 +10°C° 0 mm 0 mps 749 mmHg 83%
    05:00 +13°C° 0 mm 0 mps 749 mmHg 73%
    06:00 +16°C° 0 mm 0 mps 750 mmHg 62%
    07:00 +18°C° 0 mm 0 mps 750 mmHg 52%
    08:00 +23°C° 0 mm 1 mps 750 mmHg 45%
    09:00 +26°C° 0 mm 2 mps 750 mmHg 38%
    10:00 +29°C° 0 mm 3 mps 750 mmHg 31%
    11:00 +29°C° 0 mm 3 mps 750 mmHg 30%
    12:00 +30°C° 0 mm 3 mps 750 mmHg 29%
    13:00 +30°C° 0 mm 4 mps 750 mmHg 29%
    14:00 +30°C° 0 mm 3 mps 750 mmHg 30%
    15:00 +29°C° 0 mm 3 mps 750 mmHg 31%
    16:00 +28°C° 0 mm 3 mps 750 mmHg 33%
    17:00 +24°C° 0 mm 2 mps 750 mmHg 47%
    18:00 +20°C° 0 mm 1 mps 750 mmHg 61%
    19:00 +14°C° 0 mm 0 mps 750 mmHg 75%
    20:00 +13°C° 0 mm 0 mps 750 mmHg 74%
    21:00 +13°C° 0 mm 0 mps 750 mmHg 73%
    22:00 +13°C° 0 mm 0 mps 750 mmHg 73%
    23:00 +13°C° 0 mm 0 mps 750 mmHg 71%

    26 February, Wednesday

    Time Temperature Precipitation Wind Pressure Humidity
    00:00 +13°C° 0 mm 0 mps 750 mmHg 70%
    01:00 +13°C° 0 mm 0 mps 749 mmHg 69%
    02:00 +13°C° 0 mm 0 mps 749 mmHg 68%
    03:00 +12°C° 0 mm 0 mps 749 mmHg 68%
    04:00 +12°C° 0 mm 0 mps 748 mmHg 68%
    05:00 +15°C° 0 mm 0 mps 749 mmHg 60%
    06:00 +18°C° 0 mm 0 mps 749 mmHg 51%
    07:00 +20°C° 0 mm 0 mps 749 mmHg 43%
    08:00 +25°C° 0 mm 1 mps 749 mmHg 38%
    09:00 +28°C° 0 mm 2 mps 749 mmHg 32%
    10:00 +31°C° 0 mm 3 mps 749 mmHg 27%
    11:00 +31°C° 0 mm 3 mps 749 mmHg 27%
    12:00 +33°C° 0 mm 3 mps 749 mmHg 27%
    13:00 +33°C° 0 mm 3 mps 749 mmHg 27%
    14:00 +31°C° 0 mm 3 mps 748 mmHg 29%
    15:00 +30°C° 0 mm 3 mps 748 mmHg 31%
    16:00 +29°C° 0 mm 3 mps 748 mmHg 34%
    17:00 +25°C° 0 mm 2 mps 748 mmHg 49%
    18:00 +21°C° 0 mm 1 mps 748 mmHg 64%
    19:00 +15°C° 0 mm 0 mps 748 mmHg 79%
    20:00 +14°C° 0 mm 0 mps 749 mmHg 79%
    21:00 +14°C° 0 mm 0 mps 749 mmHg 78%
    22:00 +14°C° 0 mm 0 mps 749 mmHg 78%
    23:00 +13°C° 0 mm 0 mps 749 mmHg 78%

    27 February, Thursday

    Time Temperature Precipitation Wind Pressure Humidity
    00:00 +13°C° 0 mm 0 mps 748 mmHg 78%
    01:00 +13°C° 0 mm 0 mps 748 mmHg 77%
    02:00 +12°C° 0 mm 0 mps 748 mmHg 78%
    03:00 +12°C° 0 mm 0 mps 748 mmHg 78%
    04:00 +12°C° 0 mm 0 mps 748 mmHg 79%
    05:00 +14°C° 0 mm 0 mps 749 mmHg 71%
    06:00 +17°C° 0 mm 0 mps 749 mmHg 63%
    07:00 +19°C° 0 mm 0 mps 749 mmHg 55%
    08:00 +24°C° 0 mm 1 mps 749 mmHg 48%
    09:00 +26°C° 0 mm 2 mps 750 mmHg 41%
    10:00 +29°C° 0 mm 3 mps 750 mmHg 34%
    11:00 +29°C° 0 mm 3 mps 750 mmHg 33%
    12:00 +30°C° 0 mm 4 mps 750 mmHg 31%
    13:00 +32°C° 0 mm 4 mps 750 mmHg 30%
    14:00 +30°C° 0 mm 4 mps 749 mmHg 33%
    15:00 +28°C° 0 mm 3 mps 749 mmHg 36%
    16:00 +27°C° 0 mm 3 mps 749 mmHg 39%
    17:00 +23°C° 0 mm 2 mps 749 mmHg 55%
    18:00 +19°C° 0 mm 1 mps 749 mmHg 71%
    19:00 +13°C° 0 mm 0 mps 749 mmHg 86%
    20:00 +13°C° 0 mm 0 mps 750 mmHg 87%
    21:00 +12°C° 0 mm 0 mps 750 mmHg 87%
    22:00 +12°C° 0 mm 0 mps 750 mmHg 87%
    23:00 +12°C° 0 mm 0 mps 750 mmHg 87%
    Show more